Tracking 33744 objects as of 13-Apr-2026
HD Live streaming from Space Station
objects crossing your sky now

STARLINK-36372

Track STARLINK-36372 now!
10-day predictions
STARLINK-36372 is classified as:


NORAD ID: 67889
Int'l Code: 2026-035L
Perigee: 410.7 km
Apogee: 413.4 km
Inclination: 97.3 °
Period: 92.7 minutes
Semi major axis: 6783 km
RCS: Unknown
Launch date: February 21, 2026
Source: United States (US)
Launch site: AIR FORCE WESTERN TEST RANGE (AFWTR)
Your satellite tracking list
Your tracking list is empty




NASA's NSSDC Master Catalog

Two Line Element Set (TLE):
1 67889U 26035L   26102.91668981 -.01966924  00000-0 -34595-1 0  9999
2 67889  97.2858  36.9694 0001960  87.9658  90.0567 15.54058000  6387
Source of the keplerian elements: AFSPC